[[{"header":{"parameterUnit":"m.s-1","parameterCategory":1,"la1":30.2992,"la2":30.254,"lo1":-89.0895,"lo2":-89.0443,"dy":0.0025,"dx":0.0025,"nx":19,"ny":19,"refTime":"2026-05-17T21:00:00:Z","depth":0,"parameterNumber":2,"parameterNumberName":"U-component_of_WINDS"},"data":[0,0,0,-3.7895,-3.7898,-3.8026,-3.8027,-3.8184,-3.8185,0,0,0,0,0,0,0,0,0,0,0,-3.7853,-3.7854,-3.7895,-3.7898,-3.8026,-3.8027,-3.8184,-3.8185,0,0,0,0,0,0,0,0,0,0,0,-3.7852,-3.7853,-3.7855,-3.7898,-3.8026,-3.8027,-3.8183,-3.8089,0,0,0,0,0,0,0,0,0,0,-3.7965,-3.7922,-3.7853,-3.7855,-3.7899,-3.8026,-3.8027,-3.8084,-3.8095,-3.8122,0,-3.8147,0,-3.8168,-3.8195,-3.8196,0,0,0,-3.7901,-3.7914,-3.7952,-3.7855,-3.79,-3.8026,-3.7969,-3.809,-3.8102,-3.8136,-3.8149,-3.8155,-3.8171,-3.8196,-3.8197,-3.8349,-3.835,0,0,-3.7893,-3.7873,-3.7944,-3.7959,-3.794,-3.7965,-3.7973,-3.8097,-3.811,-3.815,-3.8159,-3.8174,-3.8197,-3.8198,-3.8349,-3.835,0,0,0,-3.7871,-3.7868,-3.7904,-3.7953,-3.7977,-3.7969,-3.7978,-3.8104,-3.8118,-3.8161,-3.8175,-3.8198,-3.82,-3.8348,-3.8349,-3.8357,0,0,0,-3.7867,-3.7855,-3.7901,-3.789,-3.7974,-3.8042,-3.7982,-3.8109,-3.8124,-3.8175,-3.8198,-3.8201,-3.8348,-3.8349,-3.8356,-3.8363,0,0,0,-3.7846,-3.7853,-3.787,-3.7888,-3.7943,-3.8041,-3.8061,-3.8113,-3.8133,-3.8196,-3.8202,-3.8347,-3.8349,-3.8354,-3.8361,-3.8396,0,0,0,-3.7817,-3.7876,-3.787,-3.7942,-3.7942,-3.8045,-3.8061,-3.8139,-3.8194,-3.8199,-3.8348,-3.8349,-3.8354,-3.836,-3.8395,-3.8421,-3.8431,0,0,-3.788,-3.7883,-3.7927,-3.7925,-3.8024,-3.8027,-3.8128,-3.8198,-3.8222,-3.8305,-3.831,-3.8356,-3.8361,-3.8396,-3.8495,-3.8503,0,0,0,-3.794,-3.797,-3.8001,-3.8053,-3.8109,-3.8156,-3.8213,-3.8239,-3.8311,-3.8261,-3.838,-3.8384,-3.8405,-3.8418,-3.8425,-3.8444,-3.8355,-3.8355,-3.8355,-3.7998,-3.8027,-3.8101,-3.8145,-3.8196,-3.8254,-3.8297,-3.8342,-3.8356,-3.8384,-3.8408,-3.8465,-3.848,-3.8484,-3.8504,-3.8426,-3.8426,-3.8426,-3.8426,-3.8091,-3.8138,-3.8157,-3.8235,-3.8265,-3.8331,-3.8391,-3.8398,-3.8464,-3.8449,-3.8469,-3.8448,-3.8492,-3.851,-3.8427,-3.8427,-3.8427,-3.8427,-3.8427,-3.813,-3.8158,-3.819,-3.8268,-3.8325,-3.8369,-3.8431,-3.8457,-3.8482,-3.8502,-3.8529,-3.8529,-3.853,-3.8514,-3.8514,-3.8514,-3.8514,-3.8514,-3.8514,-3.8157,-3.8193,-3.8242,-3.8306,-3.8343,-3.8395,-3.8456,-3.8493,-3.854,-3.8554,-3.8554,-3.8564,-3.8492,-3.8471,-3.8518,-3.8517,-3.8517,-3.8516,-3.8516,-3.8237,-3.8223,-3.8299,-3.8336,-3.8414,-3.8468,-3.8502,-3.8575,-3.861,-3.8639,-3.8646,-3.8589,-3.8593,-3.8588,-3.8571,-3.8641,-3.8641,-3.8641,-3.8641,-3.8268,-3.8274,-3.8357,-3.8414,-3.8474,-3.8511,-3.8595,-3.8643,-3.8691,-3.8714,-3.8708,-3.8689,-3.8683,-3.8691,-3.8684,-3.8668,-3.8761,-3.8761,-3.8761,-3.8318,-3.833,-3.8396,-3.8443,-3.8506,-3.8559,-3.8639,-3.8704,-3.8755,-3.8767,-3.8732,-3.8727,-3.8697,-3.8686,-3.8693,-3.8681,-3.8654,0,0]},{"header":{"parameterUnit":"m.s-1","parameterCategory":1,"la1":30.2992,"la2":30.254,"lo1":-89.0895,"lo2":-89.0443,"dy":0.0025,"dx":0.0025,"nx":19,"ny":19,"refTime":"2026-05-17T21:00:00:Z","depth":0,"parameterNumber":3,"parameterNumberName":"V-component_of_WINDS"},"data":[0,0,0,4.025,4.0254,4.0448,4.0448,4.0674,4.0676,0,0,0,0,0,0,0,0,0,0,0,4.0182,4.0183,4.025,4.0254,4.0447,4.0448,4.0674,4.0676,0,0,0,0,0,0,0,0,0,0,0,4.0181,4.0183,4.0184,4.0255,4.0447,4.0449,4.0673,4.0535,0,0,0,0,0,0,0,0,0,0,4.035,4.0277,4.0182,4.0184,4.0256,4.0447,4.0449,4.0528,4.0543,4.0578,0,4.0608,0,4.0645,4.069,4.0691,0,0,0,4.0262,4.0264,4.0327,4.0184,4.0258,4.0447,4.0363,4.0537,4.0554,4.0598,4.0611,4.062,4.0649,4.0691,4.0692,4.0871,4.0872,0,0,4.0251,4.021,4.0315,4.0337,4.0308,4.0356,4.0368,4.0548,4.0558,4.0612,4.0626,4.0653,4.0693,4.0694,4.0871,4.0871,0,0,0,4.0216,4.0202,4.0261,4.0327,4.0364,4.0362,4.0376,4.0551,4.0573,4.0628,4.0655,4.0694,4.0696,4.087,4.0871,4.0856,0,0,0,4.0209,4.0181,4.0256,4.0232,4.036,4.046,4.0374,4.0561,4.0582,4.0654,4.0694,4.0698,4.087,4.0871,4.0855,4.0855,0,0,0,4.0173,4.0177,4.0202,4.023,4.0312,4.0458,4.0491,4.0566,4.0599,4.0691,4.0699,4.087,4.087,4.0855,4.0854,4.0891,0,0,0,4.0121,4.0184,4.0201,4.0281,4.031,4.0447,4.0491,4.0595,4.0672,4.0695,4.087,4.0871,4.0854,4.0854,4.089,4.0915,4.0922,0,0,4.0177,4.0189,4.024,4.026,4.0385,4.0421,4.0543,4.0652,4.0697,4.081,4.0815,4.0855,4.0854,4.0891,4.097,4.0975,0,0,0,4.0243,4.0279,4.0321,4.0394,4.0479,4.0553,4.0647,4.0688,4.0786,4.0747,4.0879,4.088,4.0903,4.0917,4.0921,4.0944,4.0875,4.0875,4.0875,4.0263,4.0319,4.0407,4.0486,4.0556,4.0653,4.0715,4.0785,4.082,4.085,4.0884,4.0926,4.0941,4.0944,4.0967,4.0901,4.0901,4.0901,4.0901,4.0351,4.0411,4.0457,4.0559,4.0617,4.0702,4.0798,4.082,4.0907,4.0905,4.0928,4.0921,4.0948,4.0971,4.0901,4.0901,4.0901,4.0901,4.0901,4.0371,4.041,4.0458,4.057,4.0648,4.0726,4.0808,4.0857,4.0904,4.0927,4.0969,4.0969,4.0977,4.0943,4.0944,4.0944,4.0944,4.0944,4.0944,4.0373,4.0429,4.0493,4.0589,4.0643,4.0719,4.0817,4.087,4.0942,4.0971,4.0972,4.1004,4.094,4.0923,4.0947,4.0946,4.0946,4.0946,4.0945,4.0443,4.0435,4.0534,4.0588,4.0705,4.078,4.0842,4.0946,4.0997,4.1036,4.1063,4.1007,4.1023,4.102,4.1007,4.1051,4.1051,4.1051,4.1051,4.0461,4.0473,4.0587,4.0669,4.0755,4.0821,4.093,4.1006,4.1083,4.1118,4.1119,4.1105,4.11,4.1118,4.1113,4.1102,4.1169,4.1169,4.1169,4.0507,4.0531,4.0615,4.0692,4.0788,4.0868,4.0972,4.1063,4.1149,4.1175,4.1147,4.1142,4.112,4.111,4.1136,4.1127,4.1107,0,0]}]]